Location: Asheville, NC
(35.6000°N, 82.5500°W)
Time: 03:18:56
(UTC-04:00)

Oscar 11 - Pass Details

Date: 15 March 2018
Orbit: 613 x 627 km, 97.6° (Epoch: 19 June)

Event Time Altitude Azimuth Distance (km) Brightness Sun altitude
Exits shadow 22:17:51 10° 232° (SW) 1,943 9.9 -32.5°
Maximum altitude 22:20:13 15° 267° (W) 1,659 9.8 -33.0°
Drops below altitude 10° 22:22:42 10° 303° (WNW) 1,970 10.4 -33.4°
Sets 22:25:45 0° 326° (NNW) 2,881 11.3 -34.0°
